Flag for Cameroon Weather past 2 weeks in Douala, Cameroon

Now
90 °F

Partly sunny.


Feels Like: 103 °F
Forecast: 74 / 89 °F
Wind: No wind

Location: Douala Obs.


UV Index: 3 (Moderate)

Visibility: N/A


Pressure: 29.83 "Hg

Humidity: 67%

Dew point: 77 °F

Location of DoualaLocation

Historic Weather in Douala

°F

Douala temperature yesterday

Maximum temperature yesterday: 88 °F (at 12:00 PM)
Minimum temperature yesterday: 75 °F (at 9:00 PM)
Average temperature yesterday: 80 °F

Past Weeks' High & Low Weather Summary

 TemperatureHumidityPressure
High93 °F (Apr 17, 2:00 PM)100% (Apr 11, 12:00 AM)29.95 "Hg (Apr 11, 12:00 AM)
Low72 °F (Apr 12, 9:00 PM)56% (Apr 12, 2:00 PM)29.71 "Hg (Apr 12, 3:00 PM)
Average81 °F85%29.84 "Hg
* Reported Apr 9 1:00 PM — Apr 23 12:00 Noon, Douala, Weather by CustomWeather, © 2014

Note: Actual official high and low records may vary slightly from our data, if they occured in-between our weather recording intervals... More about our weather records

Advertising

Historic Weather Conditions — Data for Previous 24 hours

 ConditionsComfort  
Time TempWeatherWind HumidityBarometerVisibility
12:00 PM
Apr 23
88 °FPartly sunny.No wind75%29.86 "HgN/A
11:00 AM86 °FPartly sunny.No wind79%29.89 "HgN/A
10:00 AM84 °FPartly sunny.No wind84%29.92 "HgN/A
9:00 AM81 °FPartly sunny.No wind89%29.92 "HgN/A
8:00 AM79 °FThunderstorms. Partly sunny.2 mph89%29.89 "HgN/A
7:00 AM77 °FThunderstorms. Partly sunny.7 mph94%29.86 "Hg5 mi
6:00 AM75 °FThunderstorms. Passing clouds.3 mph100%29.83 "Hg4 mi
5:00 AM77 °FThunderstorms. Passing clouds.1 mph94%29.83 "Hg5 mi
4:00 AM75 °FThunderstorms. Partly cloudy.No wind100%29.83 "Hg5 mi
3:00 AM75 °FThunderstorms. Partly cloudy.No wind100%29.83 "HgN/A
2:00 AM77 °FThunderstorms. Passing clouds.No wind94%29.83 "HgN/A
1:00 AM77 °FThunderstorms. Passing clouds.No wind94%29.89 "HgN/A
12:00 AM75 °FThunderstorms. Passing clouds.No wind100%29.89 "HgN/A
11:00 PM
Apr 22
75 °FThunderstorms. Passing clouds.No wind100%29.89 "HgN/A
10:00 PM75 °FThunderstorms. Partly cloudy.No wind100%29.86 "HgN/A
9:00 PM75 °FPartly cloudy.No wind100%29.86 "HgN/A
8:00 PM77 °FPartly cloudy.No wind94%29.86 "HgN/A
7:00 PM77 °FThunderstorms. Mostly cloudy.No wind94%29.83 "HgN/A
6:00 PM79 °FThunderstorms. More clouds than sun.No wind94%29.77 "Hg4 mi
5:00 PM79 °FThunderstorms. Broken clouds.No wind100%29.77 "Hg4 mi
4:00 PM79 °FThunderstorms. Broken clouds.No wind94%29.77 "HgN/A
3:00 PM77 °FThunderstorms. Broken clouds.No wind94%29.83 "HgN/A
2:00 PM77 °FThunderstorms. More clouds than sun.7 mph94%29.83 "Hg4 mi
1:00 PM88 °FThunderstorms. Broken clouds.7 mph70%29.86 "Hg2 mi
Weather by CustomWeather, © 2014

See weather overview